User: anonymous   Login
Location: Mascot Post Office (historical)
(40.2645°N, 99.5462°W)
Time: 02:07:31
(UTC+00:00)
Language:

Cosmos 1980 - Orbit

View from above orbital plane
View from above orbital plane
View from above satellite
View from above satellite

Ground track
Ground track

The orbit data is extracted from the following two-line orbital elements,

1 19649U 88102A   20272.47243099 +.00000292 +00000-0 +17618-3 0  9998
2 19649 070.9997 068.5845 0007410 285.3854 074.6450 14.14719068643915
Epoch (UTC): 28 September 2020 11:20:18
Eccentricity: 0.0007410
inclination: 70.9997°
perigee height: 838 km
apogee height: 848 km
right ascension of ascending node: 68.5845°
argument of perigee: 285.3854°
revolutions per day: 14.14719068
mean anomaly at epoch: 74.6450°
orbit number at epoch: 64391

The dashed part of the orbit path shows where the satellite is in the earth's shadow,  

DLR